DLH241 EDDL-EDDF

Flight info

Callsign DLH241
Flight time N/A
Altitude 21000
Route COL5Z COL T911 ROLIS ROLIS5A
Aircraft A20N/M-SDE2E3FGHIRWXY/LB1

Departure

Time 2026-05-05 16:53
Airport Düsseldorf Airport (EDDL)

Arrival

Time N/A
Airport Frankfurt Main Airport (EDDF)
Time Latitude Longitude Altitude Speed Heading
2026-05-05 16:29 51.28068 6.76534 128 ft 0 kts 97°
2026-05-05 16:45 51.28068 6.76532 128 ft 0 kts 97°
2026-05-05 16:45 51.28068 6.76525 128 ft 0 kts 97°
2026-05-05 16:45 51.28069 6.76523 128 ft 0 kts 97°
2026-05-05 16:45 51.28070 6.76511 123 ft 1 kts 97°
2026-05-05 16:46 51.28070 6.76505 123 ft 0 kts 97°
2026-05-05 16:46 51.28071 6.76490 127 ft 1 kts 97°
2026-05-05 16:46 51.28072 6.76475 125 ft 2 kts 74°
2026-05-05 16:46 51.28068 6.76460 124 ft 2 kts 43°
2026-05-05 16:47 51.28059 6.76451 124 ft 2 kts 348°
2026-05-05 16:47 51.28053 6.76454 124 ft 0 kts 314°
2026-05-05 16:48 51.28060 6.76447 124 ft 4 kts 329°
2026-05-05 16:49 51.28105 6.76406 125 ft 9 kts 321°
2026-05-05 16:49 51.28140 6.76330 124 ft 5 kts 294°
2026-05-05 16:49 51.28163 6.76276 124 ft 8 kts 312°
2026-05-05 16:49 51.28209 6.76213 126 ft 6 kts 292°
2026-05-05 16:50 51.28193 6.76157 125 ft 8 kts 234°
2026-05-05 16:50 51.28153 6.76074 124 ft 12 kts 232°
2026-05-05 16:50 51.28095 6.75957 126 ft 15 kts 232°
2026-05-05 16:50 51.28023 6.75800 127 ft 19 kts 232°
2026-05-05 16:51 51.27943 6.75630 126 ft 18 kts 238°
2026-05-05 16:51 51.27925 6.75594 127 ft 7 kts 230°
2026-05-05 16:51 51.27875 6.75497 125 ft 15 kts 229°
2026-05-05 16:51 51.27850 6.75355 121 ft 15 kts 299°
2026-05-05 16:52 51.27948 6.75272 121 ft 17 kts 351°
2026-05-05 16:52 51.28047 6.75368 125 ft 18 kts 59°
2026-05-05 16:52 51.28123 6.75539 127 ft 20 kts 53°
2026-05-05 16:52 51.28235 6.75768 125 ft 49 kts 51°
2026-05-05 16:53 51.28594 6.76507 125 ft 116 kts 53°
2026-05-05 16:53 51.29187 6.77756 204 ft 159 kts 51°
2026-05-05 16:53 51.29854 6.79190 746 ft 157 kts 51°
2026-05-05 16:53 51.30512 6.80557 1452 ft 156 kts 54°
2026-05-05 16:54 51.31175 6.81945 2176 ft 163 kts 55°
2026-05-05 16:54 51.31907 6.83487 2757 ft 185 kts 54°
2026-05-05 16:54 51.32682 6.85181 3352 ft 205 kts 62°
2026-05-05 16:54 51.33006 6.87459 3951 ft 221 kts 97°
2026-05-05 16:55 51.32464 6.89812 4574 ft 236 kts 129°
2026-05-05 16:55 51.31244 6.91565 5394 ft 244 kts 147°
2026-05-05 16:55 51.29757 6.93111 6130 ft 262 kts 149°
2026-05-05 16:55 51.28227 6.94734 7202 ft 267 kts 147°
2026-05-05 16:56 51.26712 6.96496 8270 ft 272 kts 144°
2026-05-05 16:56 51.25201 6.98384 9335 ft 278 kts 142°
2026-05-05 16:56 51.23704 7.00330 10295 ft 287 kts 142°
2026-05-05 16:56 51.22103 7.02439 10812 ft 310 kts 142°
2026-05-05 16:57 51.20382 7.04712 11290 ft 331 kts 142°
2026-05-05 16:57 51.18586 7.07086 12175 ft 337 kts 142°
2026-05-05 16:57 51.16772 7.09480 13151 ft 341 kts 142°
2026-05-05 16:57 51.14929 7.11906 14055 ft 345 kts 142°
2026-05-05 16:58 51.13928 7.13222 14503 ft 348 kts 142°
2026-05-05 16:58 51.13068 7.14351 14880 ft 350 kts 142°
2026-05-05 16:58 51.11168 7.16845 15716 ft 355 kts 142°
2026-05-05 16:59 51.09259 7.19345 16520 ft 360 kts 143°
2026-05-05 16:59 51.07312 7.21892 17312 ft 365 kts 143°
2026-05-05 16:59 51.05345 7.24463 18100 ft 370 kts 143°
2026-05-05 16:59 51.03345 7.27073 18791 ft 374 kts 143°
2026-05-05 17:00 51.01315 7.29719 19475 ft 379 kts 143°
2026-05-05 17:00 50.99265 7.32386 20138 ft 384 kts 143°
2026-05-05 17:00 50.97214 7.35053 20622 ft 388 kts 144°
2026-05-05 17:00 50.95091 7.37810 20798 ft 390 kts 144°
2026-05-05 17:01 50.92991 7.40535 20826 ft 390 kts 144°
2026-05-05 17:01 50.90891 7.43254 20814 ft 390 kts 144°
2026-05-05 17:01 50.88814 7.45940 20824 ft 390 kts 144°
2026-05-05 17:01 50.86713 7.48654 20822 ft 390 kts 144°
2026-05-05 17:02 50.84610 7.51369 20821 ft 390 kts 144°
2026-05-05 17:02 50.82504 7.54082 20822 ft 390 kts 144°
2026-05-05 17:02 50.80396 7.56789 20817 ft 390 kts 145°
2026-05-05 17:02 50.78173 7.59220 20817 ft 387 kts 152°
2026-05-05 17:03 50.75794 7.61173 20815 ft 385 kts 159°
2026-05-05 17:03 50.73325 7.62801 20816 ft 381 kts 160°
2026-05-05 17:03 50.70936 7.64382 20815 ft 363 kts 160°
2026-05-05 17:03 50.68673 7.65889 20816 ft 344 kts 160°
2026-05-05 17:04 50.66515 7.67326 20736 ft 330 kts 160°
2026-05-05 17:04 50.64403 7.68726 20283 ft 329 kts 160°
2026-05-05 17:04 50.62300 7.70114 19825 ft 327 kts 160°
2026-05-05 17:04 50.60205 7.71498 19404 ft 325 kts 160°
2026-05-05 17:05 50.58141 7.72863 18957 ft 323 kts 160°
2026-05-05 17:05 50.56049 7.74241 18003 ft 331 kts 160°
2026-05-05 17:05 50.53924 7.75642 17270 ft 328 kts 160°
2026-05-05 17:05 50.51873 7.77000 16944 ft 312 kts 160°
2026-05-05 17:06 50.49889 7.78312 16360 ft 307 kts 160°
2026-05-05 17:06 50.47952 7.79588 15741 ft 304 kts 160°
2026-05-05 17:06 50.46010 7.80866 15119 ft 301 kts 160°
2026-05-05 17:06 50.44103 7.82189 14506 ft 299 kts 155°
2026-05-05 17:07 50.42341 7.83918 13903 ft 298 kts 146°
2026-05-05 17:07 50.40724 7.85944 13271 ft 300 kts 144°
2026-05-05 17:07 50.39067 7.88019 12434 ft 309 kts 144°
2026-05-05 17:07 50.37523 7.90456 11538 ft 325 kts 127°
2026-05-05 17:08 50.36587 7.93764 10692 ft 339 kts 109°
2026-05-05 17:08 50.36053 7.97386 10111 ft 340 kts 104°
2026-05-05 17:08 50.35611 8.00997 9889 ft 339 kts 104°
2026-05-05 17:08 50.35130 8.04637 9822 ft 342 kts 105°
2026-05-05 17:09 50.34608 8.08241 9819 ft 335 kts 107°
2026-05-05 17:09 50.34079 8.11695 9823 ft 317 kts 107°
2026-05-05 17:09 50.33565 8.14940 9821 ft 298 kts 108°
2026-05-05 17:09 50.33069 8.18020 9825 ft 293 kts 108°
2026-05-05 17:10 50.32557 8.21140 9828 ft 295 kts 108°
2026-05-05 17:10 50.32050 8.24242 9830 ft 293 kts 108°
2026-05-05 17:10 50.31546 8.27327 9828 ft 294 kts 108°
2026-05-05 17:10 50.31039 8.30429 9831 ft 294 kts 108°
2026-05-05 17:11 50.30533 8.33527 9825 ft 293 kts 108°
2026-05-05 17:11 50.30030 8.36606 9831 ft 292 kts 108°
2026-05-05 17:11 50.29526 8.39686 9828 ft 291 kts 108°
2026-05-05 17:11 50.29020 8.42765 9832 ft 293 kts 108°
2026-05-05 17:12 50.28513 8.45849 9829 ft 293 kts 108°
2026-05-05 17:12 50.28013 8.48886 9832 ft 291 kts 108°
2026-05-05 17:12 50.27510 8.51938 9825 ft 291 kts 108°
2026-05-05 17:12 50.27003 8.54999 9816 ft 291 kts 108°
2026-05-05 17:13 50.26492 8.58071 9821 ft 292 kts 108°
2026-05-05 17:13 50.25983 8.61136 9822 ft 291 kts 108°
2026-05-05 17:13 50.25477 8.64183 9695 ft 289 kts 108°
2026-05-05 17:13 50.24970 8.67223 9328 ft 289 kts 108°
2026-05-05 17:14 50.24467 8.70240 8973 ft 285 kts 108°
2026-05-05 17:14 50.23967 8.73234 8556 ft 283 kts 108°
2026-05-05 17:14 50.23470 8.76207 8102 ft 283 kts 108°
2026-05-05 17:14 50.22970 8.79180 7671 ft 282 kts 108°
2026-05-05 17:15 50.22635 8.81175 7418 ft 281 kts 108°
2026-05-05 17:15 50.22141 8.84107 7072 ft 277 kts 107°
2026-05-05 17:15 50.21830 8.87039 6646 ft 280 kts 92°
2026-05-05 17:15 50.21782 8.90062 6255 ft 276 kts 103°
2026-05-05 17:16 50.21611 8.93028 5914 ft 274 kts 84°
2026-05-05 17:16 50.22068 8.95872 5668 ft 267 kts 82°
2026-05-05 17:16 50.21958 8.98706 5282 ft 262 kts 110°
2026-05-05 17:16 50.21485 9.01441 4932 ft 261 kts 94°
2026-05-05 17:17 50.21798 9.04227 4963 ft 266 kts 74°
2026-05-05 17:17 50.22369 9.07043 4956 ft 279 kts 74°
2026-05-05 17:17 50.22595 9.10007 4960 ft 274 kts 99°
2026-05-05 17:17 50.21959 9.12743 4960 ft 269 kts 126°
2026-05-05 17:18 50.20600 9.14681 4960 ft 267 kts 154°
2026-05-05 17:18 50.18827 9.15362 4961 ft 263 kts 184°
2026-05-05 17:18 50.17136 9.14393 4966 ft 264 kts 219°
2026-05-05 17:18 50.16121 9.12092 4960 ft 257 kts 254°
2026-05-05 17:19 50.15910 9.09411 4956 ft 242 kts 266°
2026-05-05 17:19 50.15835 9.06873 4965 ft 227 kts 266°
2026-05-05 17:19 50.15750 9.04372 4966 ft 237 kts 265°
2026-05-05 17:19 50.15643 9.01819 4966 ft 235 kts 264°
2026-05-05 17:20 50.15413 8.99319 4965 ft 232 kts 256°
2026-05-05 17:20 50.14965 8.96894 4965 ft 232 kts 250°
2026-05-05 17:20 50.14416 8.94559 4960 ft 225 kts 248°
2026-05-05 17:20 50.13887 8.92349 4960 ft 210 kts 248°
2026-05-05 17:21 50.13398 8.90294 4959 ft 195 kts 248°
2026-05-05 17:21 50.12942 8.88380 4975 ft 191 kts 248°
2026-05-05 17:21 50.12458 8.86356 4914 ft 199 kts 248°
2026-05-05 17:22 50.11510 8.82379 4428 ft 195 kts 249°
2026-05-05 17:22 50.11037 8.80395 4148 ft 196 kts 249°
2026-05-05 17:22 50.10561 8.78402 3862 ft 196 kts 249°
2026-05-05 17:22 50.10087 8.76416 3591 ft 196 kts 249°
2026-05-05 17:23 50.09611 8.74419 3320 ft 197 kts 249°
2026-05-05 17:23 50.09137 8.72434 3052 ft 198 kts 250°
2026-05-05 17:23 50.08657 8.70424 2758 ft 199 kts 250°
2026-05-05 17:23 50.08175 8.68406 2504 ft 196 kts 250°
2026-05-05 17:24 50.07711 8.66468 2214 ft 187 kts 251°
2026-05-05 17:24 50.07263 8.64587 1945 ft 180 kts 251°
2026-05-05 17:24 50.06841 8.62821 1688 ft 174 kts 251°
2026-05-05 17:24 50.06433 8.61119 1534 ft 162 kts 251°
2026-05-05 17:25 50.06032 8.59437 1942 ft 166 kts 251°
2026-05-05 17:25 50.05770 8.58342 2518 ft 162 kts 251°